Time,TemperatureF,DewpointF,PressureIn,WindDirection,WindDirectionDegrees,WindSpeedMPH,WindSpeedGustMPH,Humidity,HourlyPrecipIn,Conditions,Clouds,dailyrainin,SoftwareType,DateUTC
2013-12-02 00:13:00,32.2,29.1,29.83,WSW,248,0.6,0.9,88,0.00,,,0.00,WUHU216HW,2013-12-02 05:13:00,
2013-12-02 00:28:00,32.2,29.1,29.84,North,0,0.0,0.0,88,0.00,,,0.00,WUHU216HW,2013-12-02 05:28:00,
2013-12-02 00:43:00,32.2,29.1,29.84,North,0,0.0,0.0,88,0.00,,,0.00,WUHU216HW,2013-12-02 05:43:00,
2013-12-02 00:58:00,32.2,29.4,29.84,North,0,0.0,0.0,89,0.00,,,0.00,WUHU216HW,2013-12-02 05:58:00,
2013-12-02 01:13:00,32.2,29.4,29.84,West,270,0.7,0.9,89,0.00,,,0.00,WUHU216HW,2013-12-02 06:13:00,
2013-12-02 01:28:00,32.2,29.4,29.84,North,0,0.0,0.0,89,0.00,,,0.00,WUHU216HW,2013-12-02 06:28:00,
2013-12-02 01:43:00,32.2,29.4,29.83,North,0,0.0,0.0,89,0.00,,,0.00,WUHU216HW,2013-12-02 06:43:00,
2013-12-02 01:58:00,32.4,29.5,29.83,North,0,0.0,0.0,89,0.00,,,0.00,WUHU216HW,2013-12-02 06:58:00,
2013-12-02 02:13:00,32.4,29.5,29.83,North,0,0.0,0.0,89,0.00,,,0.00,WUHU216HW,2013-12-02 07:13:00,
2013-12-02 02:28:00,32.4,29.5,29.83,North,0,0.0,0.0,89,0.00,,,0.00,WUHU216HW,2013-12-02 07:28:00,
2013-12-02 02:43:00,32.4,29.5,29.82,North,0,0.0,0.0,89,0.00,,,0.00,WUHU216HW,2013-12-02 07:43:00,
2013-12-02 02:58:00,32.4,29.9,29.81,North,0,0.0,0.0,90,0.00,,,0.00,WUHU216HW,2013-12-02 07:58:00,
2013-12-02 03:13:00,32.4,29.9,29.81,North,0,0.0,0.0,90,0.00,,,0.00,WUHU216HW,2013-12-02 08:13:00,
2013-12-02 03:28:00,32.4,29.9,29.81,North,0,0.0,0.0,90,0.00,,,0.00,WUHU216HW,2013-12-02 08:28:00,
2013-12-02 03:43:00,32.6,30.0,29.81,North,0,0.0,0.0,90,0.00,,,0.00,WUHU216HW,2013-12-02 08:43:00,
2013-12-02 03:58:00,32.4,29.9,29.80,North,0,0.0,0.0,90,0.00,,,0.00,WUHU216HW,2013-12-02 08:58:00,
2013-12-02 04:13:00,32.6,30.0,29.80,North,0,0.0,0.0,90,0.00,,,0.00,WUHU216HW,2013-12-02 09:13:00,
2013-12-02 04:28:00,32.6,30.0,29.80,North,0,0.0,0.0,90,0.00,,,0.00,WUHU216HW,2013-12-02 09:28:00,
2013-12-02 04:43:00,32.4,29.9,29.80,North,0,0.0,0.0,90,0.00,,,0.00,WUHU216HW,2013-12-02 09:43:00,
2013-12-02 04:58:00,32.6,30.0,29.79,North,0,0.0,0.0,90,0.00,,,0.00,WUHU216HW,2013-12-02 09:58:00,
2013-12-02 05:13:00,32.6,30.0,29.79,North,0,0.0,0.0,90,0.00,,,0.00,WUHU216HW,2013-12-02 10:13:00,
2013-12-02 05:28:00,32.6,30.0,29.79,North,0,0.0,0.0,90,0.00,,,0.00,WUHU216HW,2013-12-02 10:28:00,
2013-12-02 05:43:00,32.6,30.0,29.80,North,0,0.0,0.0,90,0.00,,,0.00,WUHU216HW,2013-12-02 10:43:00,
2013-12-02 05:58:00,32.8,30.4,29.79,North,0,0.0,0.0,91,0.00,,,0.00,WUHU216HW,2013-12-02 10:58:00,
2013-12-02 06:13:00,32.8,30.4,29.79,North,0,0.0,0.0,91,0.00,,,0.00,WUHU216HW,2013-12-02 11:13:00,
2013-12-02 06:28:00,32.8,30.4,29.79,WNW,293,0.8,1.1,91,0.00,,,0.00,WUHU216HW,2013-12-02 11:28:00,
2013-12-02 06:43:00,32.8,30.4,29.79,WNW,293,1.0,1.6,91,0.00,,,0.00,WUHU216HW,2013-12-02 11:43:00,
2013-12-02 06:58:00,32.8,30.4,29.78,North,0,0.0,0.0,91,0.00,,,0.00,WUHU216HW,2013-12-02 11:58:00,
2013-12-02 07:13:00,32.8,30.4,29.78,North,0,0.0,0.0,91,0.00,,,0.00,WUHU216HW,2013-12-02 12:13:00,
2013-12-02 07:28:00,32.9,30.9,29.78,WNW,293,0.6,1.1,92,0.00,,,0.00,WUHU216HW,2013-12-02 12:28:00,
2013-12-02 07:43:00,33.1,31.1,29.78,WNW,293,0.6,1.1,92,0.00,,,0.00,WUHU216HW,2013-12-02 12:43:00,
2013-12-02 07:58:00,33.1,31.1,29.78,North,0,0.0,0.0,92,0.00,,,0.00,WUHU216HW,2013-12-02 12:58:00,
2013-12-02 08:13:00,33.1,31.1,29.77,North,0,0.0,0.0,92,0.00,,,0.00,WUHU216HW,2013-12-02 13:13:00,
2013-12-02 08:28:00,33.3,31.1,29.77,West,278,1.5,1.8,92,0.00,,,0.00,WUHU216HW,2013-12-02 13:28:00,
2013-12-02 08:43:00,33.5,31.3,29.78,North,9,0.4,1.6,92,0.00,,,0.00,WUHU216HW,2013-12-02 13:43:00,
2013-12-02 08:58:00,33.5,31.3,29.78,ENE,62,0.6,1.1,92,0.00,,,0.00,WUHU216HW,2013-12-02 13:58:00,
2013-12-02 09:13:00,33.5,31.3,29.78,North,0,0.0,0.0,92,0.00,,,0.00,WUHU216HW,2013-12-02 14:13:00,
2013-12-02 09:28:00,33.5,31.3,29.77,North,0,0.0,0.0,92,0.00,,,0.00,WUHU216HW,2013-12-02 14:28:00,
2013-12-02 09:43:00,33.7,31.5,29.77,North,0,0.0,0.0,92,0.00,,,0.00,WUHU216HW,2013-12-02 14:43:00,
2013-12-02 09:58:00,33.8,31.7,29.77,North,0,0.0,0.0,92,0.00,,,0.00,WUHU216HW,2013-12-02 14:58:00,
2013-12-02 10:13:00,34.2,32.0,29.77,SSE,148,0.5,0.9,92,0.00,,,0.00,WUHU216HW,2013-12-02 15:13:00,
2013-12-02 10:28:00,34.7,32.6,29.77,East,100,0.6,1.1,92,0.02,,,0.02,WUHU216HW,2013-12-02 15:28:00,
2013-12-02 10:43:00,34.9,32.8,29.77,ENE,68,0.4,0.4,92,0.02,,,0.02,WUHU216HW,2013-12-02 15:43:00,
2013-12-02 10:58:00,34.9,32.8,29.76,ENE,68,0.4,0.7,92,0.02,,,0.02,WUHU216HW,2013-12-02 15:58:00,
2013-12-02 11:13:00,34.9,33.0,29.76,West,271,0.8,1.1,93,0.02,,,0.02,WUHU216HW,2013-12-02 16:13:00,
2013-12-02 11:28:00,35.6,33.8,29.75,North,0,0.0,0.0,93,0.00,,,0.02,WUHU216HW,2013-12-02 16:28:00,
2013-12-02 11:43:00,36.2,34.3,29.74,SE,141,0.5,0.9,93,0.00,,,0.02,WUHU216HW,2013-12-02 16:43:00,
2013-12-02 11:58:00,36.4,34.5,29.74,SSW,203,0.4,0.9,93,0.00,,,0.02,WUHU216HW,2013-12-02 16:58:00,
2013-12-02 12:13:00,36.9,35.0,29.74,SE,145,0.7,1.8,93,0.00,,,0.02,WUHU216HW,2013-12-02 17:13:00,
2013-12-02 12:28:00,36.9,35.0,29.74,East,79,0.7,1.1,93,0.00,,,0.02,WUHU216HW,2013-12-02 17:28:00,
2013-12-02 12:43:00,36.9,35.0,29.73,ENE,68,0.4,0.7,93,0.00,,,0.02,WUHU216HW,2013-12-02 17:43:00,
2013-12-02 12:58:00,37.1,35.2,29.73,North,0,0.0,0.0,93,0.00,,,0.02,WUHU216HW,2013-12-02 17:58:00,
2013-12-02 13:13:00,37.4,35.6,29.73,SE,130,0.4,0.7,93,0.00,,,0.02,WUHU216HW,2013-12-02 18:13:00,
2013-12-02 13:28:00,37.6,35.7,29.73,North,0,0.0,0.0,93,0.00,,,0.02,WUHU216HW,2013-12-02 18:28:00,
2013-12-02 13:43:00,38.0,36.1,29.72,ESE,113,0.5,0.7,93,0.00,,,0.02,WUHU216HW,2013-12-02 18:43:00,
2013-12-02 13:58:00,38.2,36.3,29.72,South,180,0.3,0.4,93,0.00,,,0.02,WUHU216HW,2013-12-02 18:58:00,
2013-12-02 14:13:00,38.3,36.5,29.72,ESE,113,0.4,0.7,93,0.00,,,0.02,WUHU216HW,2013-12-02 19:13:00,
2013-12-02 14:28:00,38.3,36.5,29.71,North,0,0.0,0.0,93,0.00,,,0.02,WUHU216HW,2013-12-02 19:28:00,
2013-12-02 14:43:00,38.5,36.6,29.72,ESE,109,0.5,1.6,93,0.00,,,0.02,WUHU216HW,2013-12-02 19:43:00,
2013-12-02 14:58:00,38.5,36.6,29.72,East,84,0.5,1.6,93,0.00,,,0.02,WUHU216HW,2013-12-02 19:58:00,
2013-12-02 15:13:00,38.2,36.0,29.71,WNW,291,0.8,1.6,92,0.00,,,0.02,WUHU216HW,2013-12-02 20:13:00,
2013-12-02 15:28:00,38.0,35.8,29.71,West,270,0.7,1.1,92,0.00,,,0.02,WUHU216HW,2013-12-02 20:28:00,
2013-12-02 15:43:00,37.8,35.6,29.71,West,270,0.5,1.1,92,0.00,,,0.02,WUHU216HW,2013-12-02 20:43:00,
2013-12-02 15:58:00,37.4,35.3,29.71,WNW,293,0.6,1.3,92,0.00,,,0.02,WUHU216HW,2013-12-02 20:58:00,
2013-12-02 16:13:00,37.1,34.9,29.71,WNW,293,0.6,1.1,92,0.00,,,0.02,WUHU216HW,2013-12-02 21:13:00,
2013-12-02 16:28:00,36.9,34.7,29.71,WNW,290,0.7,1.3,92,0.00,,,0.02,WUHU216HW,2013-12-02 21:28:00,
2013-12-02 16:43:00,36.7,34.6,29.71,North,0,0.0,0.0,92,0.00,,,0.02,WUHU216HW,2013-12-02 21:43:00,
2013-12-02 16:58:00,36.4,34.2,29.71,North,0,0.0,0.0,92,0.00,,,0.02,WUHU216HW,2013-12-02 21:58:00,
2013-12-02 17:13:00,36.2,34.0,29.71,WNW,293,1.0,1.1,92,0.00,,,0.02,WUHU216HW,2013-12-02 22:13:00,
2013-12-02 17:28:00,36.0,33.8,29.72,WNW,293,0.7,1.1,92,0.00,,,0.02,WUHU216HW,2013-12-02 22:28:00,
2013-12-02 17:43:00,35.8,33.7,29.72,North,0,0.0,0.0,92,0.00,,,0.02,WUHU216HW,2013-12-02 22:43:00,
2013-12-02 17:58:00,35.6,33.5,29.73,WNW,293,0.4,0.4,92,0.00,,,0.02,WUHU216HW,2013-12-02 22:58:00,
2013-12-02 18:13:00,35.6,33.5,29.73,WNW,293,0.5,0.7,92,0.00,,,0.02,WUHU216HW,2013-12-02 23:13:00,
2013-12-02 18:28:00,35.6,33.5,29.74,North,0,0.0,0.0,92,0.00,,,0.02,WUHU216HW,2013-12-02 23:28:00,
2013-12-02 18:43:00,35.5,33.3,29.74,WNW,293,0.4,0.7,92,0.01,,,0.03,WUHU216HW,2013-12-02 23:43:00,
2013-12-02 18:58:00,35.3,33.1,29.74,North,0,0.0,0.0,92,0.03,,,0.05,WUHU216HW,2013-12-02 23:58:00,
2013-12-02 19:13:00,35.1,32.9,29.74,North,0,0.0,0.0,92,0.03,,,0.05,WUHU216HW,2013-12-03 00:13:00,
2013-12-02 19:28:00,34.9,32.8,29.73,WNW,293,0.5,0.7,92,0.03,,,0.05,WUHU216HW,2013-12-03 00:28:00,
2013-12-02 19:43:00,34.9,33.0,29.72,WNW,284,0.9,2.0,93,0.02,,,0.05,WUHU216HW,2013-12-03 00:43:00,
2013-12-02 19:58:00,34.9,33.0,29.73,West,274,1.3,2.0,93,0.00,,,0.05,WUHU216HW,2013-12-03 00:58:00,
2013-12-02 20:13:00,34.7,32.9,29.73,North,0,0.0,0.0,93,0.00,,,0.05,WUHU216HW,2013-12-03 01:13:00,
2013-12-02 20:28:00,34.6,32.7,29.72,West,270,0.8,1.1,93,0.00,,,0.05,WUHU216HW,2013-12-03 01:28:00,
2013-12-02 20:43:00,34.6,32.7,29.72,WNW,293,0.9,1.3,93,0.00,,,0.05,WUHU216HW,2013-12-03 01:43:00,
2013-12-02 20:59:00,34.6,32.7,29.72,WNW,293,0.8,1.1,93,0.00,,,0.05,WUHU216HW,2013-12-03 01:59:00,
2013-12-02 21:14:00,34.6,32.7,29.72,North,0,0.0,0.0,93,0.00,,,0.05,WUHU216HW,2013-12-03 02:14:00,
2013-12-02 21:29:00,34.4,32.5,29.72,North,0,0.0,0.0,93,0.00,,,0.05,WUHU216HW,2013-12-03 02:29:00,
2013-12-02 21:44:00,34.4,32.5,29.71,WNW,293,0.2,0.2,93,0.00,,,0.05,WUHU216HW,2013-12-03 02:44:00,
2013-12-02 21:59:00,34.4,32.5,29.71,West,279,1.2,1.8,93,0.00,,,0.05,WUHU216HW,2013-12-03 02:59:00,
2013-12-02 22:14:00,34.4,32.5,29.71,North,0,0.0,0.0,93,0.00,,,0.05,WUHU216HW,2013-12-03 03:14:00,
2013-12-02 22:29:00,34.4,32.5,29.71,North,0,0.0,0.0,93,0.00,,,0.05,WUHU216HW,2013-12-03 03:29:00,
2013-12-02 22:44:00,34.2,32.6,29.71,West,270,0.8,1.3,94,0.00,,,0.05,WUHU216HW,2013-12-03 03:44:00,
2013-12-02 22:59:00,34.0,32.1,29.71,WNW,287,0.7,1.3,93,0.00,,,0.05,WUHU216HW,2013-12-03 03:59:00,
2013-12-02 23:14:00,34.0,32.4,29.71,NNW,342,0.7,0.9,94,0.00,,,0.05,WUHU216HW,2013-12-03 04:14:00,
2013-12-02 23:29:00,34.0,32.4,29.71,NNW,338,0.5,0.9,94,0.00,,,0.05,WUHU216HW,2013-12-03 04:29:00,
2013-12-02 23:44:00,33.8,32.2,29.71,NNW,338,0.2,0.2,94,0.00,,,0.05,WUHU216HW,2013-12-03 04:44:00,
2013-12-02 23:59:00,34.0,32.4,29.70,North,0,0.0,0.0,94,0.00,,,0.05,WUHU216HW,2013-12-03 04:59:00,